70P/Kojima (2021)

Japanese version
Home page
Updated on September 18, 2021

---------------------------------------------------------------------

* Profile

* Pictures

* Orbital Elements

Epoch 2021 July 5.0 TT = JDT 2459400.5
T 2021 Nov. 3.13614 TT                                  Rudenko
q   2.0089705            (2000.0)            P               Q
n   0.13978581     Peri.    1.83707     -0.51642515     -0.85044554
a   3.6770031      Node   119.26809     +0.78419704     -0.51669459
e   0.4536392      Incl.    6.59818     +0.34400591     -0.09883869
P   7.05
From 1307 observations 1970 Dec. 27-2021 Aug. 30, mean residual 0".7.
     Nongravitational parameters A1 = +0.03, A2 = -0.0077.

* Finding Charts

* Magnitudes Graph

        m1 = 10.5 + 5 log d + 15.0 log r(t - 50)

---------------------------------------------------------------------

The orbital elements are published on M.P.E.C. 2021-R75.
The charts are made with StellaNavigator Ver.10 (AstroArts).
The magnitudes graphs are made with Comet for Windows.

---------------------------------------------------------------------

Copyright(C) Seiichi Yoshida (comet@aerith.net). All rights reserved.